Weather History for KGUY - August, 2014

Change the Weather History Date:

Saturday, August 23, 2014

  Actual Average Record
Temperature  
Mean Temperature 83 °F 78 °F  
Max Temperature 98 °F 91 °F 102 °F (2010)
Min Temperature 68 °F 64 °F 62 °F (2001)
Degree Days  
Heating Degree Days 0 0  
Month to date heating degree days 0 0  
Since 1 June heating degree days 9 8  
Since 1 July heating degree days 4 0  
Cooling Degree Days 18 12  
Month to date cooling degree days 372 312  
Year to date cooling degree days 1325 1154  
Since 1 June cooling degree days 1147 1046  
Growing Degree Days 33 (Base 50)    
Moisture  
Dew Point 59 °F    
Average Humidity 53    
Maximum Humidity 84    
Minimum Humidity 21    
Precipitation  
Precipitation 0.03 in 0.11 in 0.71 in (2010)
Month to date precipitation 0.46 2.16  
Year to date precipitation 8.17 14.01  
Snow  
Snow 0.00 in - - ()
Month to date snowfall 0.0  
Since 1 June snowfall 0.0  
Since 1 July snowfall 0.0  
Snow Depth 0.00 in    
Sea Level Pressure  
Sea Level Pressure 29.74 in    
Wind  
Wind Speed 17 mph (SSW)    
Max Wind Speed 33 mph    
Max Gust Speed 43 mph    
Visibility 10 miles    
Events Rain , Thunderstorm    
T = Trace of Precipitation, MM = Missing Value Source: NWS Daily Summary

Daily Weather History Graph

Daily Weather History Graph

Search for Another Location

Airport or City:

Trip Planner

Search our weather history database for the weather conditions in past years. The results will help you decide how hot, cold, wet, or windy it might be!

Date:

Astronomy

Aug. 23, 2014 Rise Set
Actual Time 7:09 AM CDT 8:26 PM CDT
Civil Twilight 6:42 AM CDT 8:53 PM CDT
Nautical Twilight 6:10 AM CDT 9:25 PM CDT
Astronomical Twilight 5:37 AM CDT 9:59 PM CDT
Moon 5:28 AM CDT (8/23) 7:12 PM CDT (8/23)
Length of Visible Light 14h 10m
Length of Day
13h 16m
Waning Crescent, 3% of the Moon is Illuminated
Aug 23
Waning Crescent
Aug 25
New
Sep 2
First Quarter
Sep 8
Full
Sep 15
Last Quarter

Hourly Weather History & Observations

Time (CDT) Temp. Heat Index Dew Point Humidity Pressure Visibility Wind Dir Wind Speed Gust Speed Precip Events Conditions
12:37 AM 71.1 °F - 62.1 °F 73% 29.97 in 10.0 mi South 25.3 mph 35.7 mph 0.00 in Rain Light Rain
12:53 AM 71.1 °F - 62.1 °F 73% 29.82 in 10.0 mi South 20.7 mph - 0.02 in Rain , Thunderstorm Light Rain
1:18 AM 70.0 °F - 62.1 °F 76% 29.95 in 10.0 mi SW 18.4 mph 28.8 mph 0.04 in Rain Light Rain
1:53 AM 70.0 °F - 62.1 °F 76% 29.79 in 10.0 mi SSW 16.1 mph - 0.04 in   Mostly Cloudy
2:53 AM 72.0 °F - 62.1 °F 71% 29.77 in 10.0 mi SSW 10.4 mph - N/A   Partly Cloudy
4:53 AM 69.1 °F - 64.0 °F 84% 29.76 in 10.0 mi South 10.4 mph - N/A   Clear
6:53 AM 69.1 °F - 63.0 °F 81% 29.77 in 10.0 mi SSW 12.7 mph - N/A   Clear
7:53 AM 71.1 °F - 62.1 °F 73% 29.77 in 10.0 mi SSW 17.3 mph - N/A   Clear
8:53 AM 73.0 °F - 62.1 °F 68% 29.78 in 10.0 mi SSW 17.3 mph 24.2 mph N/A   Clear
9:53 AM 75.9 °F - 63.0 °F 64% 29.77 in 10.0 mi SW 16.1 mph - N/A   Clear
10:53 AM 84.0 °F 84.5 °F 62.1 °F 47% 29.75 in 10.0 mi SSW 20.7 mph 27.6 mph N/A   Clear
11:53 AM 88.0 °F 86.7 °F 57.0 °F 35% 29.74 in 10.0 mi SW 18.4 mph - N/A   Clear
12:53 PM 91.9 °F 90.3 °F 55.9 °F 30% 29.73 in 10.0 mi SSW 21.9 mph 28.8 mph N/A   Clear
1:53 PM 95.0 °F 92.7 °F 54.0 °F 25% 29.71 in 10.0 mi SSW 23.0 mph 27.6 mph N/A   Clear
2:53 PM 95.0 °F 93.0 °F 55.0 °F 26% 29.70 in 10.0 mi SSW 20.7 mph 33.4 mph N/A   Clear
4:53 PM 97.0 °F - 50.0 °F 20% 29.65 in 10.0 mi SSW 26.5 mph 42.6 mph N/A   Clear
5:53 PM 97.0 °F - 51.1 °F 21% 29.65 in 10.0 mi SSW 18.4 mph 34.5 mph N/A   Partly Cloudy
6:53 PM 93.9 °F 91.7 °F 54.0 °F 26% 29.65 in 10.0 mi SSW 19.6 mph 31.1 mph N/A   Mostly Cloudy
7:53 PM 90.0 °F 88.8 °F 57.9 °F 34% 29.65 in 10.0 mi South 16.1 mph 27.6 mph N/A   Partly Cloudy
8:53 PM 86.0 °F 85.0 °F 57.9 °F 38% 29.67 in 10.0 mi South 15.0 mph - N/A   Clear
9:53 PM 82.9 °F 82.6 °F 57.9 °F 42% 29.69 in 10.0 mi South 13.8 mph - N/A   Clear
10:53 PM 80.1 °F 80.6 °F 57.9 °F 47% 29.69 in 10.0 mi South 12.7 mph - N/A   Clear
11:53 PM 79.0 °F - 59.0 °F 50% 29.70 in 10.0 mi South 12.7 mph - N/A   Clear